Temperature
17 17 16 16 15 15 14 14 14 13 13 13 13 12 12 12 12 12 11 11 11 11 11 11 11 11 11 11 11 11 11 11 11 12 12 12 13 13 13 13 14 14 14
17 17 16 16 15 15 14 14 14 13 13 13 13 12 12 12 12 11 11 11 11 11 11 11 11 11 11 11 11 11 11 11 11 11 12 12 12 12 13 13 13 13 13
17 17 16 16 15 15 15 14 14 13 13 13 13 12 12 12 11 11 11 11 11 11 11 11 11 10 10 10 10 10 11 11 10 11 11 11 12 12 12 12 13 13 13
17 17 16 16 16 15 15 14 14 14 13 13 12 12 12 12 11 11 11 11 11 10 10 10 10 10 10 10 10 10 10 10 10 10 10 11 11 12 12 12 12 13 13
18 17 17 16 16 15 15 14 14 14 13 13 12 12 12 12 12 11 11 11 10 10 10 10 10 10 10 10 10 10 10 10 10 10 10 10 11 11 11 11 12 12 12
18 17 17 16 16 15 15 14 14 14 13 13 13 12 12 12 11 11 11 11 11 10 10 10 10 10 10 10 9 9 9 9 9 9 10 10 10 10 11 11 11 11 11
18 17 17 16 16 15 15 15 14 14 14 13 13 12 12 12 12 11 11 11 11 11 10 10 10 10 10 9 9 9 9 9 9 9 9 10 10 10 10 10 10 11 11
18 18 17 17 16 16 15 15 14 14 14 13 13 13 12 12 12 11 11 11 11 11 10 10 10 10 10 9 9 9 9 9 9 9 9 9 10 10 10 10 10 10 10
18 18 17 17 16 16 15 15 15 14 14 13 13 13 13 12 12 12 11 11 11 11 10 10 10 9 9 9 9 9 9 9 9 9 9 9 9 9 9 9 9 9 10
18 18 17 17 16 16 15 15 15 14 14 14 13 13 13 12 12 12 11 11 11 11 10 10 10 9 9 9 9 9 9 9 9 9 9 9 9 9 9 9 9 9 9
18 18 17 17 16 16 15 15 15 14 14 13 13 13 13 12 12 12 11 11 11 11 10 10 10 9 9 9 9 8 8 8 8 8 8 9 9 9 9 9 9 9 9
18 17 17 16 16 16 15 15 15 14 14 14 13 13 13 13 12 12 12 11 11 10 10 10 10 9 9 9 9 8 8 8 8 8 8 8 9 9 9 9 9 9 9
17 17 17 16 16 15 15 15 14 14 14 14 13 13 13 13 12 12 12 11 11 10 10 10 10 9 9 9 9 8 8 8 8 8 8 8 9 9 9 9 9 9 9
17 16 16 16 15 15 15 14 14 14 14 14 13 13 13 13 13 12 12 11 11 11 10 10 10 9 9 9 9 9 8 8 8 8 8 8 8 8 8 8 9 9 9
16 16 15 15 15 14 14 14 14 14 13 13 13 13 13 13 13 12 12 11 11 11 10 10 10 9 9 9 9 9 9 8 8 8 8 8 8 8 8 8 8 8 8
15 15 14 14 14 13 13 13 13 13 13 13 13 13 13 13 12 12 12 12 11 11 10 10 10 10 9 9 9 9 9 8 8 8 8 8 8 8 8 8 8 8 8
14 13 13 13 13 13 12 12 13 13 13 13 13 13 13 12 12 12 12 11 11 11 10 10 10 9 9 9 9 9 9 8 8 8 8 8 8 8 8 8 8 8 8
13 13 12 12 12 12 12 12 12 12 12 13 13 13 13 12 12 12 12 11 11 11 10 10 10 9 9 9 8 8 8 8 8 8 8 8 8 8 8 8 8 8 8
12 12 12 12 11 11 11 12 12 12 12 12 12 12 12 12 12 12 11 11 11 11 10 10 10 9 9 9 8 8 8 8 8 8 8 8 8 8 8 8 8 8 8
11 11 11 11 11 11 11 11 11 11 11 11 12 12 12 12 12 12 11 11 11 11 10 10 10 9 9 9 9 8 8 8 8 8 8 8 8 8 8 8 8 8 8
11 10 10 10 10 10 10 10 11 11 11 11 11 11 11 11 11 11 11 11 11 10 10 10 10 9 9 9 9 9 9 9 9 9 8 8 8 8 8 8 8 8 8
10 10 10 10 10 10 10 10 10 10 10 10 11 11 11 11 11 11 11 10 10 10 10 10 10 9 9 9 9 9 9 9 9 9 9 8 8 8 8 8 8 8 8
10 9 9 9 9 9 9 9 9 9 10 10 10 10 10 10 10 10 10 10 10 10 10 10 9 9 9 9 9 9 9 9 9 9 8 8 8 8 8 8 8 8 8
9 9 9 9 9 9 9 9 9 9 9 9 9 9 10 10 10 10 10 10 10 10 10 10 9 9 9 9 9 9 9 9 9 8 8 8 8 8 8 8 8 8 9
9 9 9 8 8 8 8 8 8 8 8 9 9 9 9 9 9 9 10 10 10 10 10 10 9 9 9 9 9 9 8 8 8 8 8 8 8 8 8 8 9 9 9
9 8 8 8 8 8 7 7 8 8 8 8 8 8 8 9 9 9 9 9 9 9 9 9 9 9 9 9 9 8 8 8 8 8 8 8 8 8 9 9 9 9 9
Wind_Speed
8 7 7 6 5 5 4 4 3 3 3 3 3 3 4 4 4 3 4 5 5 5 5 4 5 5 4 4 4 4 4 4 5 5 4 4 4 6 6 7 9 9 10
8 7 7 6 5 4 4 4 4 4 4 4 4 4 4 5 4 5 6 6 5 6 6 5 6 5 5 5 4 5 5 5 5 7 4 4 5 6 6 5 5 7 8
8 7 7 6 6 6 5 5 4 4 4 4 4 5 5 5 6 6 6 6 6 6 6 6 6 6 6 5 5 6 5 6 5 5 5 4 4 4 4 5 5 4 6
8 8 7 7 7 7 6 6 5 5 5 5 5 6 6 6 6 6 6 6 6 6 6 6 7 7 7 7 6 7 6 6 5 5 5 5 5 4 3 4 4 4 4
9 8 8 7 7 6 6 6 6 5 6 6 5 6 6 5 6 6 5 6 6 6 7 7 7 9 11 9 7 6 6 5 5 5 5 4 4 4 4 3 4 4 4
9 9 8 7 7 6 6 6 5 5 5 5 6 6 6 6 8 10 8 6 6 7 7 7 8 9 11 12 13 11 10 8 7 6 5 6 7 6 5 4 3 3 4
9 8 8 7 7 7 6 6 6 6 5 6 6 6 7 9 12 13 12 8 7 7 8 7 7 8 9 7 10 11 11 13 13 9 8 9 8 7 6 5 5 5 5
9 8 8 7 7 7 6 6 6 5 6 6 7 7 7 9 13 13 13 8 7 8 8 8 8 9 10 9 8 8 8 9 10 9 9 10 10 8 8 7 7 5 4
9 9 8 8 8 7 7 7 6 5 6 6 6 7 8 10 13 13 12 6 7 8 8 8 8 9 12 12 8 8 9 9 11 13 13 13 14 13 10 5 5 4 5
10 9 8 8 8 8 8 7 6 6 7 7 7 8 9 10 12 14 12 5 7 7 7 7 10 11 12 10 7 7 9 9 8 8 8 9 10 10 12 9 8 6 5
8 7 7 7 7 7 7 6 6 6 7 7 8 9 9 10 12 14 13 7 7 7 7 7 7 11 12 11 9 8 12 10 7 7 7 7 6 6 7 8 9 8 8
6 6 6 7 6 6 6 7 6 7 7 8 8 9 8 8 10 12 14 13 11 8 8 7 8 11 12 12 10 12 15 11 6 6 6 7 7 7 7 8 9 10 9
5 5 5 6 6 6 6 7 6 6 6 7 7 8 9 7 8 13 13 14 14 9 8 11 12 13 12 11 14 16 12 7 6 7 9 9 8 8 6 5 6 7 8
5 5 4 5 5 5 5 5 6 7 7 8 8 8 8 7 7 6 6 7 8 8 7 8 11 13 12 12 11 10 8 8 8 9 7 8 6 5 6 5 5 5 5
3 4 4 4 5 6 6 6 8 8 9 9 8 8 8 8 11 12 8 6 6 6 4 3 4 5 6 7 7 7 7 7 8 8 8 8 7 7 7 5 5 5 6
3 4 4 4 5 5 7 8 11 12 15 16 16 13 10 13 14 13 14 13 11 8 4 5 6 7 8 8 8 8 7 7 8 8 8 8 8 8 7 5 5 6 7
2 4 4 4 5 6 6 7 9 10 12 13 16 16 16 15 15 14 13 10 9 8 6 7 8 9 9 8 8 8 8 8 7 7 8 8 8 7 7 6 6 6 6
4 5 5 5 5 6 7 7 7 7 8 8 10 13 15 15 15 14 10 6 5 6 7 9 9 9 8 8 8 8 8 7 6 7 8 8 8 7 7 7 7 7 7
4 4 5 5 6 6 7 7 6 7 7 8 7 8 11 11 11 10 8 6 7 8 8 9 9 9 8 8 8 8 8 7 7 6 7 8 7 7 7 7 7 9 7
4 8 7 6 6 7 7 7 7 7 7 7 7 7 5 3 4 5 6 7 8 9 9 8 8 8 8 8 8 7 7 7 7 7 7 7 7 7 7 8 7 7 7
4 6 9 7 6 7 7 7 7 7 7 7 7 8 8 6 7 7 6 7 8 9 9 8 7 7 7 7 6 7 7 7 7 6 6 6 6 6 6 6 7 7 6
4 5 6 6 7 7 7 7 7 7 7 8 7 8 10 6 6 6 6 6 7 7 7 7 7 7 6 6 6 6 6 6 6 6 6 6 6 6 6 6 6 6 6
4 6 7 7 7 9 9 7 7 7 7 7 7 7 6 5 6 6 6 6 6 6 6 6 6 6 6 6 6 6 6 6 6 5 5 5 5 5 5 6 7 6 7
5 6 7 7 7 7 7 7 7 7 7 7 7 7 6 6 5 6 6 6 6 6 5 5 6 7 8 5 4 4 4 5 4 5 6 6 5 5 5 5 6 7 7
5 6 6 7 7 7 7 7 7 7 8 7 6 6 6 5 5 5 5 5 6 5 6 5 5 5 6 6 5 4 4 5 4 3 3 4 5 5 5 6 5 5 6
5 6 6 6 6 6 6 6 7 8 7 7 6 6 6 5 6 6 5 5 4 4 4 4 4 4 4 4 4 4 3 4 4 4 3 3 4 4 4 4 6 6 7
Wind_Direction
170 168 162 171 171 167 172 192 200 209 214 223 236 246 258 263 263 254 254 260 259 266 270 264 266 263 262 263 255 244 232 210 244 269 260 272 277 278 282 272 265 252 250
174 169 171 174 172 177 193 205 200 205 217 225 231 241 252 254 252 246 254 258 252 258 264 263 267 271 263 260 256 253 248 231 228 261 273 273 267 266 266 265 259 252 247
169 167 172 179 184 195 206 211 211 215 226 234 233 240 248 253 253 250 245 250 248 249 250 250 256 259 261 259 256 254 254 256 230 239 262 262 268 269 274 274 263 256 254
166 170 181 193 198 204 208 212 218 220 226 237 239 242 246 249 251 250 246 246 249 251 251 248 249 245 248 252 257 251 250 253 248 245 256 263 265 270 262 267 278 260 257
168 178 195 201 202 203 210 219 226 229 231 233 240 249 252 252 247 236 236 242 244 255 259 256 255 255 251 248 252 246 243 243 244 244 252 261 263 265 257 249 258 270 265
176 191 198 197 200 207 216 222 228 235 239 239 243 248 255 256 249 240 234 239 243 247 256 261 265 266 265 263 261 256 239 233 233 234 243 244 251 246 247 247 247 258 275
187 196 198 197 204 214 217 215 224 231 234 242 248 249 253 258 260 259 252 237 237 243 247 254 266 269 268 264 268 272 264 251 235 226 233 240 243 238 234 245 237 230 239
193 200 201 199 208 213 214 221 228 228 232 242 248 250 253 261 260 258 257 242 238 244 244 245 251 263 267 258 260 265 261 259 250 239 233 240 242 237 227 232 236 243 252
198 204 206 203 207 211 218 227 228 226 236 241 246 249 253 263 263 258 254 235 242 251 251 250 247 255 263 263 255 257 265 267 262 249 238 240 244 243 232 227 231 228 250
205 206 206 203 205 213 221 228 229 226 236 244 252 250 249 257 263 259 248 222 241 254 259 257 254 255 259 260 243 243 256 263 266 272 262 256 252 253 244 224 216 219 226
201 200 201 203 209 217 225 231 233 234 242 247 255 260 257 256 264 263 248 216 227 243 253 256 253 255 256 258 247 236 247 255 261 259 262 261 256 248 243 228 217 214 217
185 194 205 212 219 220 224 239 239 235 243 252 257 268 267 262 256 258 250 233 225 227 243 248 249 254 256 259 258 252 254 257 254 254 257 256 252 250 245 236 227 223 223
188 205 217 224 230 230 229 243 252 246 244 253 253 261 268 264 257 253 252 245 235 226 240 245 253 259 263 266 262 258 257 247 238 244 249 251 246 245 246 245 240 232 233
195 218 230 239 252 255 250 246 250 254 253 254 254 257 261 262 257 251 245 245 243 238 247 259 266 267 264 259 264 263 246 233 230 239 243 247 246 244 244 236 234 225 226
234 246 253 252 258 269 268 258 254 251 249 245 249 247 247 257 253 235 223 228 224 228 236 261 265 270 271 268 265 259 248 236 236 238 240 244 244 243 245 233 223 216 218
308 300 290 284 279 277 281 288 276 264 268 258 248 244 244 244 252 247 237 234 231 213 201 245 259 260 261 264 265 265 254 242 238 234 235 236 237 238 241 233 218 214 220
320 298 292 289 287 285 284 281 289 294 287 276 265 257 247 251 253 249 241 232 224 196 214 245 252 257 258 258 257 256 256 250 240 235 235 234 232 232 231 230 223 220 222
330 315 310 295 291 288 286 281 275 278 289 292 280 265 259 256 253 248 233 201 225 209 226 242 250 253 254 255 255 253 254 255 244 239 237 233 227 224 225 224 219 218 219
334 318 310 302 296 290 289 286 280 279 277 280 288 286 268 263 261 250 203 205 233 240 237 242 247 250 252 252 251 250 248 248 245 237 235 231 224 218 221 222 219 218 214
327 321 323 313 308 307 303 293 288 287 285 283 280 275 270 246 244 236 212 221 234 245 247 247 250 251 251 251 249 248 248 246 244 240 236 231 223 215 219 219 215 210 209
314 315 319 318 308 303 301 295 290 288 286 285 280 273 256 243 244 242 234 230 233 239 243 245 248 252 252 250 248 247 246 247 241 237 235 229 220 217 217 215 213 208 202
306 304 304 302 301 300 299 295 293 289 287 287 289 287 273 257 249 246 243 243 239 236 237 241 247 247 246 245 244 245 246 247 244 236 231 226 221 218 215 211 207 200 197
299 302 303 300 299 300 302 297 298 295 292 287 287 285 280 267 260 255 254 251 248 246 242 238 244 249 250 246 241 236 237 242 240 233 226 224 225 222 214 207 201 195 200
293 295 298 300 303 302 300 300 303 302 296 290 290 286 280 274 267 267 269 263 256 253 246 241 244 250 255 252 245 238 239 244 244 239 225 222 224 224 210 201 200 198 198
293 298 301 301 302 301 301 302 304 306 303 300 299 298 294 287 280 279 276 271 267 263 258 250 245 250 260 254 248 244 245 246 248 252 236 227 227 218 205 198 195 194 192
297 304 308 307 304 302 305 308 307 307 306 307 305 300 297 295 293 292 290 280 277 273 269 263 254 254 259 256 252 243 244 250 255 258 249 233 228 218 200 195 191 189 188
Height
1527 1527 1527 1526 1526 1526 1525 1524 1524 1523 1522 1521 1520 1519 1518 1517 1516 1515 1514 1513 1512 1511 1510 1508 1507 1507 1506 1505 1505 1505 1505 1504 1502 1500 1501 1502 1502 1502 1502 1502 1503 1503 1503
1524 1525 1524 1524 1524 1523 1523 1522 1521 1520 1519 1518 1517 1516 1515 1514 1513 1511 1510 1509 1508 1507 1505 1504 1503 1502 1501 1501 1500 1500 1499 1499 1498 1495 1495 1496 1496 1497 1496 1497 1497 1497 1498
1522 1522 1522 1521 1521 1521 1520 1519 1518 1517 1516 1515 1514 1513 1512 1510 1509 1508 1507 1505 1504 1503 1501 1500 1499 1498 1496 1496 1495 1494 1493 1493 1492 1491 1490 1490 1490 1491 1491 1491 1491 1492 1492
1519 1519 1519 1519 1518 1518 1517 1516 1515 1514 1513 1512 1511 1510 1508 1507 1505 1504 1502 1501 1500 1498 1497 1496 1494 1493 1491 1490 1489 1488 1488 1487 1487 1486 1485 1484 1485 1485 1485 1485 1485 1486 1486
1515 1516 1516 1516 1515 1515 1514 1513 1512 1511 1510 1509 1508 1506 1504 1503 1501 1500 1498 1496 1495 1493 1492 1491 1489 1488 1486 1485 1484 1483 1482 1481 1481 1480 1479 1479 1479 1480 1480 1480 1480 1480 1480
1512 1512 1512 1512 1512 1512 1511 1510 1509 1508 1507 1506 1504 1502 1500 1499 1497 1495 1493 1492 1490 1488 1487 1485 1484 1482 1481 1479 1478 1477 1477 1476 1475 1474 1474 1473 1473 1474 1475 1475 1474 1474 1474
1508 1508 1509 1509 1509 1509 1508 1507 1506 1505 1503 1502 1500 1498 1496 1494 1492 1491 1489 1487 1485 1483 1481 1479 1478 1476 1475 1474 1472 1471 1471 1470 1470 1469 1468 1467 1467 1468 1469 1469 1469 1469 1469
1504 1505 1505 1505 1505 1505 1505 1504 1502 1501 1500 1498 1496 1494 1492 1490 1488 1486 1484 1482 1479 1478 1476 1474 1472 1471 1470 1468 1467 1465 1464 1464 1464 1463 1462 1461 1462 1462 1463 1463 1463 1463 1463
1500 1501 1501 1502 1502 1501 1500 1500 1499 1497 1495 1494 1492 1490 1487 1485 1483 1481 1479 1476 1474 1472 1471 1469 1467 1465 1464 1463 1461 1459 1458 1457 1457 1456 1455 1454 1455 1455 1456 1456 1456 1457 1456
1496 1497 1498 1498 1498 1497 1496 1495 1494 1493 1491 1489 1487 1485 1483 1480 1478 1476 1474 1471 1469 1467 1465 1463 1462 1460 1458 1457 1455 1454 1452 1451 1450 1449 1448 1448 1448 1448 1449 1449 1450 1451 1451
1493 1493 1494 1494 1494 1493 1492 1491 1489 1488 1486 1484 1482 1480 1478 1475 1473 1471 1468 1465 1463 1461 1459 1457 1456 1454 1452 1451 1449 1447 1446 1445 1443 1442 1441 1440 1440 1441 1442 1443 1443 1444 1445
1489 1489 1490 1489 1489 1488 1487 1486 1484 1483 1481 1479 1477 1474 1472 1470 1467 1465 1463 1460 1458 1455 1453 1452 1450 1448 1446 1445 1443 1441 1439 1438 1436 1435 1434 1433 1433 1433 1434 1436 1436 1437 1438
1485 1485 1485 1485 1484 1483 1482 1481 1479 1477 1475 1472 1470 1468 1466 1464 1461 1459 1457 1454 1452 1449 1447 1445 1444 1442 1440 1438 1436 1434 1432 1430 1429 1427 1426 1426 1426 1427 1427 1428 1429 1430 1431
1481 1481 1481 1480 1479 1478 1477 1475 1473 1471 1469 1466 1464 1462 1459 1457 1455 1453 1451 1448 1446 1443 1441 1439 1437 1435 1433 1431 1429 1427 1425 1424 1422 1421 1420 1420 1420 1420 1420 1421 1422 1423 1424
1478 1477 1476 1475 1474 1472 1471 1469 1467 1465 1463 1461 1458 1456 1453 1450 1449 1447 1445 1442 1440 1438 1435 1433 1431 1429 1426 1424 1422 1420 1418 1417 1416 1414 1414 1413 1413 1413 1414 1415 1416 1417 1418
1473 1472 1471 1470 1468 1466 1464 1462 1460 1459 1456 1454 1452 1449 1446 1444 1442 1440 1438 1436 1434 1431 1429 1426 1424 1422 1420 1417 1415 1413 1412 1410 1409 1408 1408 1407 1407 1407 1408 1409 1410 1411 1412
1469 1468 1466 1464 1462 1460 1458 1455 1453 1451 1449 1447 1445 1442 1440 1438 1436 1434 1432 1430 1428 1425 1423 1420 1418 1416 1413 1411 1409 1407 1405 1404 1403 1402 1401 1401 1401 1401 1402 1403 1404 1405 1407
1466 1464 1462 1459 1457 1455 1452 1450 1447 1444 1441 1439 1438 1435 1433 1431 1429 1427 1426 1423 1421 1419 1416 1414 1412 1409 1407 1404 1402 1401 1399 1398 1397 1396 1395 1395 1395 1395 1396 1397 1398 1400 1402
1462 1460 1458 1455 1452 1450 1447 1444 1441 1438 1435 1433 1430 1428 1427 1424 1422 1421 1419 1417 1414 1412 1411 1408 1406 1403 1400 1398 1396 1394 1393 1392 1391 1390 1390 1389 1389 1390 1390 1391 1393 1395 1397
1458 1456 1453 1450 1447 1444 1441 1438 1435 1432 1429 1426 1424 1422 1420 1418 1416 1414 1412 1410 1408 1406 1404 1402 1399 1397 1394 1392 1390 1389 1388 1387 1386 1385 1384 1384 1384 1384 1385 1386 1388 1389 1391
1454 1451 1448 1445 1442 1439 1436 1432 1429 1427 1424 1421 1418 1416 1414 1411 1409 1407 1405 1404 1402 1400 1398 1396 1393 1391 1389 1387 1385 1384 1383 1382 1381 1380 1379 1379 1379 1379 1380 1381 1383 1385 1387
1450 1447 1443 1440 1437 1433 1430 1427 1424 1421 1417 1414 1411 1409 1407 1404 1402 1400 1399 1397 1396 1394 1392 1390 1388 1386 1384 1382 1380 1379 1378 1377 1376 1375 1375 1374 1374 1374 1375 1376 1378 1380 1382
1445 1442 1438 1435 1432 1428 1425 1421 1418 1415 1411 1408 1405 1403 1400 1398 1396 1394 1392 1391 1390 1388 1387 1385 1383 1380 1378 1377 1375 1374 1373 1372 1371 1371 1370 1370 1370 1370 1371 1372 1374 1376 1378
1441 1437 1433 1430 1426 1423 1419 1416 1412 1409 1406 1403 1399 1397 1394 1392 1390 1389 1387 1386 1384 1383 1381 1379 1377 1375 1374 1372 1370 1369 1368 1367 1367 1367 1366 1366 1366 1367 1367 1368 1370 1372 1374
1436 1432 1429 1425 1421 1417 1414 1410 1407 1404 1400 1397 1394 1391 1389 1387 1385 1383 1382 1380 1379 1377 1376 1374 1373 1371 1369 1368 1366 1365 1364 1363 1363 1363 1363 1362 1363 1363 1364 1365 1367 1369 1371
1431 1427 1423 1420 1416 1412 1409 1405 1402 1398 1395 1392 1389 1386 1384 1382 1380 1379 1377 1375 1374 1372 1371 1370 1369 1367 1366 1364 1362 1361 1360 1359 1359 1359 1359 1359 1360 1360 1362 1363 1365 1367 1369